Home   Weather   Rheine   Past weeks

Flag for Germany Past Weather in Rheine, North Rhine-Westphalia, Germany — Yesterday and Last 2 Weeks

Now
52 °F

Cool.


Feels Like: 49 °F
Forecast: 36 / 48 °F
Wind: 9 mph from West

Location: Rheine-Bentlage

Current Time: Apr 24, 2017 at 5:34:39 pm

Latest Report: Apr 24, 2017 at 4:20 pm


Visibility: N/A

Pressure: 29.86 "Hg

Humidity: 77%

Dew Point: 45 °F

Location of RheineLocation

Past Weather in Rheine — Graph

°F

Rheine Temperature Yesterday

Maximum temperature yesterday: 50 °F (at 2:20 pm)
Minimum temperature yesterday: 37 °F (at 4:20 am)
Average temperature yesterday: 43 °F

High & Low Weather Summary for the Past Weeks

 TemperatureHumidityPressure
High70 °F (Apr 9, 5:20 pm)100% (Apr 14, 6:20 am)30.63 "Hg (Apr 14, 6:20 am)
Low27 °F (Apr 20, 6:20 am)30% (Apr 20, 3:20 pm)29.83 "Hg (Apr 15, 5:20 am)
Average46 °F69%30.16 "Hg
* Reported Apr 9 3:20 pm — Apr 24 3:46 pm, Rheine, Weather by CustomWeather, © 2017

Note: Actual official high and low records may vary slightly from our data, if they occured in-between our weather recording intervals... More about our weather records

Advertising

Rheine Weather History for the Previous 24 Hours

Scroll right to see more
 ConditionsComfort  
Time TempWeatherWind HumidityBarometerVisibility
3:46 pm
Mon, Apr 24
48 °FLight rain. Partly sunny.10 mph82%29.86 "HgN/A
3:20 pm50 °FLight rain. Partly sunny.17 mph76%29.89 "HgN/A
2:20 pm52 °FPartly sunny.9 mph62%29.89 "HgN/A
1:20 pm54 °FPartly sunny.16 mph54%29.92 "HgN/A
12:20 pm54 °FPartly sunny.16 mph51%29.92 "HgN/A
11:20 am52 °FPartly sunny.16 mph54%29.95 "HgN/A
10:20 am48 °FPartly sunny.13 mph58%29.98 "HgN/A
9:20 am45 °FPartly sunny.10 mph66%29.98 "HgN/A
8:20 am43 °FPartly sunny.8 mph71%30.01 "HgN/A
7:20 am41 °FPartly sunny.8 mph76%30.04 "HgN/A
6:20 am39 °FBroken clouds.7 mph81%30.04 "HgN/A
5:20 am37 °FChilly.5 mph81%30.07 "HgN/A
4:20 am37 °FChilly.5 mph81%30.09 "HgN/A
3:20 am36 °FChilly.3 mph81%30.12 "HgN/A
2:20 am37 °FChilly.5 mph81%30.15 "HgN/A
1:20 am34 °FChilly.2 mph93%30.18 "HgN/A
12:20 am36 °FChilly.2 mph81%30.18 "HgN/A
11:20 pm
Sun, Apr 23
37 °FChilly.2 mph75%30.21 "HgN/A
10:20 pm41 °FQuite cool.3 mph70%30.21 "HgN/A
9:20 pm43 °FQuite cool.1 mph66%30.21 "HgN/A
8:20 pm48 °FCool.5 mph50%30.21 "HgN/A
7:20 pm48 °FCool.8 mph46%30.21 "HgN/A
6:20 pm48 °FCool.10 mph43%30.21 "HgN/A
5:20 pm50 °FCool.13 mph54%30.21 "HgN/A
Weather by CustomWeather, © 2017

See weather overviewHow to use our weather pages